TimeEDT,TemperatureF,Dew PointF,Humidity,Sea Level PressureIn,VisibilityMPH,Wind Direction,Wind SpeedMPH,Gust SpeedMPH,PrecipitationIn,Events,Conditions,WindDirDegrees,DateUTC
12:53 AM,34.0,32.0,92,30.22,10.0,Calm,Calm,-,N/A,,Clear,0,2013-09-17 04:53:00
1:53 AM,32.0,30.0,92,30.23,10.0,Calm,Calm,-,N/A,,Clear,0,2013-09-17 05:53:00
2:53 AM,30.9,30.0,96,30.24,10.0,Calm,Calm,-,N/A,,Clear,0,2013-09-17 06:53:00
3:53 AM,30.0,28.9,96,30.25,10.0,Calm,Calm,-,N/A,,Clear,0,2013-09-17 07:53:00
4:53 AM,30.9,28.9,92,30.26,10.0,Calm,Calm,-,N/A,,Clear,0,2013-09-17 08:53:00
5:53 AM,30.0,28.9,96,30.28,10.0,Calm,Calm,-,N/A,,Clear,0,2013-09-17 09:53:00
6:53 AM,30.0,30.0,100,30.30,10.0,Calm,Calm,-,N/A,,Clear,0,2013-09-17 10:53:00
7:53 AM,39.9,37.0,89,30.31,10.0,Calm,Calm,-,N/A,,Clear,0,2013-09-17 11:53:00
8:53 AM,46.0,37.9,73,30.32,10.0,Calm,Calm,-,N/A,,Clear,0,2013-09-17 12:53:00
9:53 AM,52.0,39.0,61,30.32,10.0,Calm,Calm,-,N/A,,Clear,0,2013-09-17 13:53:00
10:53 AM,55.0,39.9,57,30.31,10.0,North,9.2,-,N/A,,Partly Cloudy,360,2013-09-17 14:53:00
11:53 AM,55.9,39.0,53,30.31,10.0,NNW,10.4,-,N/A,,Clear,340,2013-09-17 15:53:00
12:53 PM,59.0,39.9,49,30.30,10.0,NNW,10.4,18.4,N/A,,Partly Cloudy,330,2013-09-17 16:53:00
1:53 PM,61.0,39.0,44,30.28,10.0,Variable,6.9,-,N/A,,Partly Cloudy,0,2013-09-17 17:53:00
2:53 PM,62.1,37.9,41,30.27,10.0,NNW,10.4,-,N/A,,Partly Cloudy,340,2013-09-17 18:53:00
3:53 PM,63.0,37.9,40,30.24,10.0,Variable,6.9,-,N/A,,Clear,0,2013-09-17 19:53:00
4:53 PM,62.1,39.0,43,30.23,10.0,NW,6.9,-,N/A,,Clear,310,2013-09-17 20:53:00
5:53 PM,57.9,41.0,53,30.22,10.0,WSW,4.6,-,N/A,,Clear,250,2013-09-17 21:53:00
6:53 PM,51.1,44.1,77,30.22,10.0,SSW,3.5,-,N/A,,Clear,200,2013-09-17 22:53:00
7:53 PM,46.9,43.0,86,30.22,10.0,South,4.6,-,N/A,,Clear,190,2013-09-17 23:53:00
8:53 PM,48.0,42.1,80,30.22,10.0,SW,3.5,-,N/A,,Clear,220,2013-09-18 00:53:00
9:53 PM,46.9,42.1,83,30.22,10.0,Calm,Calm,-,N/A,,Clear,0,2013-09-18 01:53:00
10:53 PM,39.0,37.9,96,30.22,10.0,Calm,Calm,-,N/A,,Clear,0,2013-09-18 02:53:00
11:53 PM,44.1,39.9,85,30.21,10.0,SSW,4.6,-,N/A,,Clear,200,2013-09-18 03:53:00